DELTA 1 R/B

基本信息
目录编号:
4251
目录名称:
DELTA 1 R/B
国际标识:
1969-101B
轨道中心:
EARTH
物体状态:
在轨
发射日期:
1969-11-22 UTC
国别:
美国 (US)
轨道信息
数据来源: 国际轨道数据
星历时间: 2026-07-12T16:53:26+0800
半长轴: 15164.66km
偏心率: 0.5537905
轨道倾角: 27.920°
近地点辐角: 75.935°
升交点赤经: 1.172°
平近点角: 337.301°
近地点: 388.478km
远地点: 17184.568km
周期: 309.748分钟
每日圈数: 4.648938
详细信息
发射场:
AFETR
轨道高度:
LEO
数据来源:
AOE Integration Group
参考系:
TEME
时间系统:
UTC
历元类型:
SGP4
2D轨道图
3D轨道图
轨道高度分析图
轨道倾角分析图
轨道综合分析图
查看轨道综合分析图